| time (UTC) | temp F | wind direction | speed knots | gust knots | rain 1hr in | rain 24hr in | rain mn in | humidity % | barometer mb |
| 20260507000535 | 53 | 190 | 6.1 | 14.8 | 0.00 | 0.10 | 0.10 | 96 | 1008.2 |
| 20260507000051 | 53 | 189 | 7.0 | 14.8 | 0.00 | 0.10 | 0.10 | 96 | 1008.2 |
| 20260506235537 | 53 | 176 | 5.2 | 17.4 | 0.00 | 0.10 | 0.10 | 96 | 1008.2 |
| 20260506235035 | 53 | 178 | 4.3 | 17.4 | 0.00 | 0.10 | 0.10 | 96 | 1008.3 |
| 20260506234541 | 53 | 177 | 5.2 | 21.7 | 0.00 | 0.10 | 0.10 | 95 | 1008.3 |
| 20260506234038 | 53 | 199 | 6.1 | 21.7 | 0.00 | 0.10 | 0.10 | 96 | 1008.3 |
| 20260506233539 | 53 | 227 | 7.0 | 13.9 | 0.00 | 0.10 | 0.10 | 96 | 1008.3 |
| 20260506233048 | 53 | 184 | 6.1 | 13.9 | 0.00 | 0.10 | 0.10 | 95 | 1008.2 |
| 20260506232536 | 53 | 180 | 6.1 | 13.0 | 0.00 | 0.10 | 0.10 | 95 | 1008.2 |
| 20260506232035 | 53 | 184 | 6.1 | 12.2 | 0.00 | 0.10 | 0.10 | 95 | 1008.2 |
| 20260506231547 | 53 | 211 | 7.0 | 13.9 | 0.00 | 0.10 | 0.10 | 96 | 1008.2 |
| 20260506231034 | 53 | 151 | 6.1 | 13.9 | 0.01 | 0.10 | 0.10 | 95 | 1008.1 |
| 20260506230536 | 53 | 198 | 6.1 | 12.2 | 0.05 | 0.10 | 0.10 | 95 | 1008.2 |
| 20260506230045 | 53 | 183 | 7.0 | 12.2 | 0.06 | 0.10 | 0.10 | 95 | 1008.2 |
| 20260506225539 | 53 | 186 | 6.1 | 18.2 | 0.07 | 0.10 | 0.10 | 95 | 1008.2 |
| 20260506225039 | 54 | 161 | 7.0 | 19.1 | 0.08 | 0.10 | 0.10 | 95 | 1008.2 |
| 20260506224543 | 54 | 169 | 8.7 | 19.1 | 0.08 | 0.10 | 0.10 | 95 | 1008.2 |
| 20260506224037 | 54 | 201 | 7.8 | 18.2 | 0.09 | 0.10 | 0.10 | 95 | 1008.2 |
| 20260506223537 | 54 | 167 | 7.0 | 17.4 | 0.09 | 0.10 | 0.10 | 95 | 1008.1 |
| 20260506223058 | 54 | 166 | 7.8 | 19.1 | 0.10 | 0.10 | 0.10 | 95 | 1008.0 |
| 20260506222538 | 54 | 187 | 9.6 | 18.2 | 0.10 | 0.10 | 0.10 | 95 | 1008.0 |
| 20260506222037 | 54 | 202 | 7.0 | 19.1 | 0.10 | 0.10 | 0.10 | 94 | 1008.0 |
| 20260506221549 | 54 | 176 | 9.6 | 19.1 | 0.10 | 0.10 | 0.10 | 94 | 1008.0 |
| 20260506221037 | 54 | 165 | 8.7 | 20.0 | 0.09 | 0.09 | 0.09 | 94 | 1008.1 |
| 20260506220537 | 54 | 193 | 8.7 | 20.0 | 0.05 | 0.05 | 0.05 | 94 | 1008.3 |
| 20260506220049 | 54 | 201 | 9.6 | 18.2 | 0.03 | 0.03 | 0.03 | 94 | 1008.2 |
| 20260506215537 | 54 | 148 | 7.8 | 22.6 | 0.02 | 0.02 | 0.02 | 93 | 1008.5 |
| 20260506215037 | 54 | 205 | 7.0 | 22.6 | 0.02 | 0.02 | 0.02 | 93 | 1008.5 |
| 20260506214545 | 55 | 193 | 7.0 | 19.1 | 0.02 | 0.02 | 0.02 | 92 | 1008.6 |
| 20260506214037 | 55 | 217 | 6.1 | 19.1 | 0.01 | 0.01 | 0.01 | 93 | 1008.5 |
| 20260506213535 | 55 | 248 | 7.0 | 18.2 | 0.01 | 0.01 | 0.01 | 92 | 1008.6 |
| 20260506213050 | 55 | 222 | 7.8 | 17.4 | 0.00 | 0.00 | 0.00 | 91 | 1008.8 |
| 20260506212538 | 55 | 202 | 8.7 | 17.4 | 0.00 | 0.00 | 0.00 | 91 | 1008.7 |
| 20260506212040 | 55 | 159 | 8.7 | 16.5 | 0.00 | 0.00 | 0.00 | 91 | 1008.8 |
| 20260506211550 | 55 | 198 | 8.7 | 18.2 | 0.00 | 0.00 | 0.00 | 91 | 1008.6 |
| 20260506211038 | 55 | 188 | 8.7 | 19.1 | 0.00 | 0.00 | 0.00 | 90 | 1008.8 |
| 20260506210539 | 55 | 180 | 8.7 | 19.1 | 0.00 | 0.00 | 0.00 | 90 | 1008.6 |
| 20260506210048 | 55 | 206 | 8.7 | 26.9 | 0.00 | 0.00 | 0.00 | 90 | 1008.7 |
| 20260506205535 | 55 | 209 | 7.8 | 26.9 | 0.00 | 0.00 | 0.00 | 90 | 1008.6 |
| 20260506205036 | 55 | 144 | 7.8 | 17.4 | 0.00 | 0.00 | 0.00 | 91 | 1008.7 |
| 20260506204546 | 55 | 182 | 5.2 | 17.4 | 0.00 | 0.00 | 0.00 | 91 | 1008.7 |
| 20260506204037 | 55 | 138 | 8.7 | 21.7 | 0.00 | 0.00 | 0.00 | 91 | 1008.7 |
| 20260506203537 | 55 | 135 | 8.7 | 21.7 | 0.00 | 0.00 | 0.00 | 91 | 1008.7 |
| 20260506203047 | 55 | 192 | 8.7 | 16.5 | 0.00 | 0.00 | 0.00 | 91 | 1008.6 |
| 20260506202536 | 55 | 159 | 9.6 | 16.5 | 0.00 | 0.00 | 0.00 | 91 | 1008.8 |
| 20260506202037 | 55 | 172 | 8.7 | 19.1 | 0.00 | 0.00 | 0.00 | 91 | 1008.9 |
| 20260506201547 | 55 | 184 | 8.7 | 19.1 | 0.00 | 0.00 | 0.00 | 91 | 1008.8 |
| 20260506201035 | 55 | 177 | 7.8 | 15.6 | 0.00 | 0.00 | 0.00 | 91 | 1008.8 |
| 20260506200536 | 55 | 194 | 7.0 | 19.1 | 0.00 | 0.00 | 0.00 | 91 | 1009.0 |
| 20260506200130 | 55 | 200 | 9.6 | 19.1 | 0.00 | 0.00 | 0.00 | 91 | 1009.1 |
| 20260506195537 | 55 | 190 | 7.0 | 18.2 | 0.00 | 0.00 | 0.00 | 91 | 1009.3 |
| 20260506195038 | 55 | 227 | 7.8 | 18.2 | 0.00 | 0.00 | 0.00 | 91 | 1009.2 |
| 20260506194550 | 55 | 177 | 7.8 | 18.2 | 0.00 | 0.00 | 0.00 | 91 | 1009.3 |
| 20260506194036 | 55 | 211 | 8.7 | 18.2 | 0.00 | 0.00 | 0.00 | 91 | 1009.3 |
| 20260506193540 | 55 | 182 | 8.7 | 25.2 | 0.00 | 0.00 | 0.00 | 90 | 1009.5 |
| 20260506193046 | 55 | 204 | 7.8 | 25.2 | 0.00 | 0.00 | 0.00 | 89 | 1009.5 |
| 20260506192538 | 55 | 157 | 7.0 | 16.5 | 0.00 | 0.00 | 0.00 | 89 | 1009.6 |
| 20260506192038 | 55 | 171 | 7.8 | 17.4 | 0.00 | 0.00 | 0.00 | 88 | 1009.6 |
| 20260506191547 | 56 | 153 | 7.0 | 17.4 | 0.00 | 0.00 | 0.00 | 88 | 1009.6 |
| 20260506191037 | 56 | 186 | 7.8 | 21.7 | 0.00 | 0.00 | 0.00 | 88 | 1009.7 |
| 20260506190538 | 56 | 227 | 9.6 | 21.7 | 0.00 | 0.00 | 0.00 | 87 | 1009.8 |
| 20260506190046 | 56 | 196 | 7.8 | 18.2 | 0.00 | 0.00 | 0.00 | 87 | 1009.9 |
| 20260506185538 | 56 | 186 | 7.8 | 18.2 | 0.00 | 0.00 | 0.00 | 87 | 1010.0 |
| 20260506185039 | 56 | 208 | 9.6 | 17.4 | 0.00 | 0.00 | 0.00 | 86 | 1009.9 |
| 20260506184550 | 56 | 230 | 9.6 | 20.0 | 0.00 | 0.00 | 0.00 | 87 | 1009.9 |
| 20260506184037 | 56 | 188 | 8.7 | 20.0 | 0.00 | 0.00 | 0.00 | 87 | 1009.8 |
| 20260506183538 | 56 | 182 | 9.6 | 20.0 | 0.00 | 0.00 | 0.00 | 87 | 1009.9 |
| 20260506183052 | 56 | 197 | 9.6 | 20.0 | 0.00 | 0.00 | 0.00 | 87 | 1010.0 |
| 20260506182537 | 56 | 157 | 10.4 | 19.1 | 0.00 | 0.00 | 0.00 | 87 | 1010.0 |
| 20260506182037 | 56 | 168 | 8.7 | 20.0 | 0.00 | 0.00 | 0.00 | 87 | 1010.1 |
| 20260506181549 | 56 | 182 | 8.7 | 20.0 | 0.00 | 0.00 | 0.00 | 86 | 1010.1 |
| 20260506181037 | 57 | 200 | 8.7 | 18.2 | 0.00 | 0.00 | 0.00 | 86 | 1010.2 |
| 20260506180538 | 57 | 188 | 8.7 | 21.7 | 0.00 | 0.00 | 0.00 | 86 | 1010.3 |
| 20260506180049 | 57 | 215 | 7.8 | 21.7 | 0.00 | 0.00 | 0.00 | 86 | 1010.3 |
| 20260506175535 | 57 | 200 | 9.6 | 26.9 | 0.00 | 0.00 | 0.00 | 86 | 1010.5 |
| 20260506175037 | 57 | 180 | 11.3 | 26.9 | 0.00 | 0.00 | 0.00 | 86 | 1010.6 |
| 20260506174547 | 57 | 202 | 8.7 | 20.0 | 0.00 | 0.00 | 0.00 | 86 | 1010.7 |
| 20260506174039 | 57 | 188 | 10.4 | 23.5 | 0.00 | 0.00 | 0.00 | 86 | 1010.9 |
| 20260506173538 | 57 | 201 | 10.4 | 23.5 | 0.00 | 0.00 | 0.00 | 86 | 1010.9 |
| 20260506173053 | 57 | 218 | 10.4 | 19.1 | 0.00 | 0.00 | 0.00 | 86 | 1011.0 |
| 20260506172536 | 57 | 197 | 10.4 | 20.9 | 0.00 | 0.00 | 0.00 | 86 | 1010.8 |
| 20260506172038 | 57 | 188 | 9.6 | 20.9 | 0.00 | 0.00 | 0.00 | 86 | 1011.1 |
| 20260506171557 | 57 | 213 | 9.6 | 20.9 | 0.00 | 0.00 | 0.00 | 86 | 1011.1 |
| 20260506171038 | 57 | 192 | 8.7 | 20.9 | 0.00 | 0.00 | 0.00 | 86 | 1011.2 |
| 20260506170538 | 57 | 208 | 10.4 | 20.9 | 0.00 | 0.00 | 0.00 | 85 | 1011.1 |
| 20260506170042 | 58 | 192 | 8.7 | 20.9 | 0.00 | 0.00 | 0.00 | 84 | 1011.1 |
| 20260506165537 | 58 | 196 | 9.6 | 25.2 | 0.00 | 0.00 | 0.00 | 84 | 1011.2 |
| 20260506165039 | 58 | 220 | 8.7 | 26.9 | 0.00 | 0.00 | 0.00 | 84 | 1011.3 |
| 20260506164542 | 58 | 189 | 10.4 | 26.9 | 0.00 | 0.00 | 0.00 | 85 | 1011.4 |
| 20260506164037 | 58 | 221 | 11.3 | 24.3 | 0.00 | 0.00 | 0.00 | 84 | 1011.3 |
| 20260506163537 | 58 | 177 | 7.8 | 18.2 | 0.00 | 0.00 | 0.00 | 85 | 1011.7 |
| 20260506163050 | 58 | 204 | 9.6 | 18.2 | 0.00 | 0.00 | 0.00 | 86 | 1011.7 |
| 20260506162538 | 58 | 166 | 7.0 | 19.1 | 0.00 | 0.00 | 0.00 | 86 | 1011.6 |
| 20260506162039 | 57 | 178 | 9.6 | 20.0 | 0.00 | 0.00 | 0.00 | 86 | 1011.7 |
| 20260506161553 | 57 | 187 | 8.7 | 20.9 | 0.00 | 0.00 | 0.00 | 86 | 1011.6 |
| 20260506161035 | 57 | 179 | 9.6 | 20.9 | 0.00 | 0.00 | 0.00 | 86 | 1011.7 |
| 20260506160540 | 57 | 186 | 10.4 | 19.1 | 0.00 | 0.00 | 0.00 | 86 | 1011.7 |
| 20260506160046 | 57 | 173 | 7.8 | 18.2 | 0.00 | 0.00 | 0.00 | 86 | 1011.9 |
| 20260506155538 | 57 | 178 | 7.8 | 20.9 | 0.00 | 0.00 | 0.00 | 85 | 1011.9 |
| 20260506155034 | 57 | 141 | 11.3 | 20.9 | 0.00 | 0.00 | 0.00 | 84 | 1012.0 |
| 20260506154547 | 58 | 184 | 8.7 | 18.2 | 0.00 | 0.00 | 0.00 | 84 | 1012.1 |
| 20260506154038 | 59 | 213 | 9.6 | 23.5 | 0.00 | 0.00 | 0.00 | 84 | 1012.2 |
| 20260506153537 | 59 | 200 | 11.3 | 23.5 | 0.00 | 0.00 | 0.00 | 84 | 1012.2 |
| 20260506153046 | 59 | 185 | 10.4 | 22.6 | 0.00 | 0.00 | 0.00 | 83 | 1012.2 |
| 20260506152538 | 60 | 206 | 10.4 | 22.6 | 0.00 | 0.00 | 0.00 | 83 | 1012.2 |
| 20260506152037 | 60 | 165 | 9.6 | 20.9 | 0.00 | 0.00 | 0.00 | 84 | 1012.0 |
| 20260506151549 | 59 | 205 | 11.3 | 20.9 | 0.00 | 0.00 | 0.00 | 84 | 1012.1 |
| 20260506151038 | 59 | 184 | 9.6 | 21.7 | 0.00 | 0.00 | 0.00 | 84 | 1012.1 |
| 20260506150537 | 59 | 177 | 10.4 | 21.7 | 0.00 | 0.00 | 0.00 | 84 | 1012.1 |
| 20260506150047 | 60 | 173 | 9.6 | 20.0 | 0.00 | 0.00 | 0.00 | 83 | 1012.3 |
| 20260506145535 | 60 | 195 | 7.0 | 17.4 | 0.00 | 0.00 | 0.00 | 85 | 1012.3 |
| 20260506145037 | 59 | 172 | 7.8 | 17.4 | 0.00 | 0.00 | 0.00 | 86 | 1012.5 |
| 20260506144547 | 58 | 205 | 6.1 | 18.2 | 0.00 | 0.00 | 0.00 | 86 | 1012.4 |
| 20260506144037 | 58 | 219 | 7.0 | 18.2 | 0.00 | 0.00 | 0.00 | 86 | 1012.4 |
| 20260506143537 | 58 | 215 | 6.1 | 19.1 | 0.00 | 0.00 | 0.00 | 86 | 1012.4 |
| 20260506143049 | 57 | 167 | 8.7 | 18.2 | 0.00 | 0.00 | 0.00 | 87 | 1012.2 |
| 20260506142538 | 57 | 142 | 7.0 | 21.7 | 0.00 | 0.00 | 0.00 | 87 | 1012.2 |
| 20260506142036 | 57 | 202 | 11.3 | 21.7 | 0.00 | 0.00 | 0.00 | 85 | 1012.2 |
| 20260506141549 | 58 | 194 | 10.4 | 21.7 | 0.00 | 0.00 | 0.00 | 85 | 1012.1 |
| 20260506141036 | 58 | 186 | 7.8 | 20.0 | 0.00 | 0.00 | 0.00 | 86 | 1011.9 |
| 20260506140538 | 58 | 206 | 7.8 | 19.1 | 0.00 | 0.00 | 0.00 | 86 | 1011.9 |
| 20260506140049 | 57 | 156 | 7.8 | 19.1 | 0.00 | 0.00 | 0.00 | 86 | 1012.1 |
| 20260506135538 | 57 | 170 | 9.6 | 19.1 | 0.00 | 0.00 | 0.00 | 85 | 1011.9 |
| 20260506135037 | 58 | 140 | 5.2 | 14.8 | 0.00 | 0.00 | 0.00 | 86 | 1011.9 |
| 20260506134611 | 58 | 223 | 6.1 | 14.8 | 0.00 | 0.00 | 0.00 | 86 | 1012.3 |
| 20260506134037 | 58 | 242 | 6.1 | 16.5 | 0.00 | 0.00 | 0.00 | 86 | 1012.4 |
| 20260506133535 | 58 | 198 | 5.2 | 16.5 | 0.00 | 0.00 | 0.00 | 86 | 1012.3 |
| 20260506133045 | 58 | 202 | 7.0 | 17.4 | 0.00 | 0.00 | 0.00 | 86 | 1012.4 |
| 20260506132537 | 58 | 244 | 7.8 | 22.6 | 0.00 | 0.00 | 0.00 | 86 | 1012.4 |
| 20260506132035 | 58 | 163 | 7.8 | 22.6 | 0.00 | 0.00 | 0.00 | 86 | 1012.5 |
| 20260506131601 | 58 | 159 | 8.7 | 20.0 | 0.00 | 0.00 | 0.00 | 85 | 1012.4 |
| 20260506131037 | 58 | 181 | 7.8 | 20.0 | 0.00 | 0.00 | 0.00 | 86 | 1012.4 |
| 20260506130536 | 58 | 180 | 7.8 | 18.2 | 0.00 | 0.00 | 0.00 | 86 | 1012.3 |
| 20260506130041 | 58 | 182 | 7.8 | 19.1 | 0.00 | 0.00 | 0.00 | 86 | 1012.3 |
| 20260506125536 | 57 | 152 | 7.0 | 20.9 | 0.00 | 0.00 | 0.00 | 87 | 1012.3 |
| 20260506125035 | 57 | 207 | 8.7 | 20.9 | 0.00 | 0.00 | 0.00 | 88 | 1012.4 |
| 20260506124548 | 57 | 187 | 10.4 | 20.0 | 0.00 | 0.00 | 0.00 | 87 | 1012.4 |
| 20260506124037 | 57 | 225 | 7.8 | 15.6 | 0.00 | 0.00 | 0.00 | 87 | 1012.4 |
| 20260506123537 | 57 | 155 | 7.8 | 15.6 | 0.00 | 0.00 | 0.00 | 88 | 1012.5 |
| 20260506123049 | 57 | 148 | 6.1 | 20.0 | 0.00 | 0.00 | 0.00 | 89 | 1012.4 |
| 20260506122538 | 56 | 213 | 7.8 | 21.7 | 0.00 | 0.00 | 0.00 | 89 | 1012.5 |
| 20260506122039 | 56 | 169 | 8.7 | 21.7 | 0.00 | 0.00 | 0.00 | 89 | 1012.4 |
| 20260506121545 | 56 | 164 | 8.7 | 20.0 | 0.00 | 0.00 | 0.00 | 89 | 1012.3 |
| 20260506121037 | 56 | 162 | 7.8 | 21.7 | 0.00 | 0.00 | 0.00 | 89 | 1012.2 |
| 20260506120537 | 56 | 175 | 8.7 | 21.7 | 0.00 | 0.00 | 0.00 | 89 | 1012.4 |
| 20260506120047 | 56 | 209 | 8.7 | 17.4 | 0.00 | 0.00 | 0.00 | 90 | 1012.4 |
| 20260506115537 | 56 | 184 | 10.4 | 20.9 | 0.00 | 0.00 | 0.00 | 90 | 1012.4 |
| 20260506115036 | 56 | 150 | 8.7 | 20.9 | 0.00 | 0.00 | 0.00 | 90 | 1012.3 |
| 20260506114547 | 56 | 184 | 7.8 | 16.5 | 0.00 | 0.00 | 0.00 | 91 | 1012.4 |
| 20260506114037 | 55 | 171 | 7.8 | 20.0 | 0.00 | 0.00 | 0.00 | 91 | 1012.5 |
| 20260506113537 | 55 | 139 | 9.6 | 20.0 | 0.00 | 0.00 | 0.00 | 91 | 1012.5 |
| 20260506113048 | 55 | 201 | 9.6 | 18.2 | 0.00 | 0.00 | 0.00 | 91 | 1012.4 |
| 20260506112538 | 55 | 199 | 9.6 | 18.2 | 0.00 | 0.00 | 0.00 | 92 | 1012.4 |
| 20260506112036 | 54 | 207 | 7.8 | 18.2 | 0.00 | 0.00 | 0.00 | 93 | 1012.4 |
| 20260506111539 | 54 | 156 | 7.8 | 18.2 | 0.00 | 0.00 | 0.00 | 93 | 1012.4 |
| 20260506111037 | 54 | 224 | 7.8 | 15.6 | 0.00 | 0.00 | 0.00 | 92 | 1012.4 |
| 20260506110537 | 54 | 197 | 7.0 | 16.5 | 0.00 | 0.00 | 0.00 | 92 | 1012.3 |
| 20260506110051 | 54 | 193 | 7.0 | 16.5 | 0.00 | 0.00 | 0.00 | 92 | 1012.3 |
| 20260506105536 | 54 | 216 | 7.0 | 15.6 | 0.00 | 0.00 | 0.00 | 93 | 1012.3 |
| 20260506105038 | 54 | 199 | 6.1 | 18.2 | 0.00 | 0.00 | 0.00 | 93 | 1012.3 |
| 20260506104544 | 54 | 172 | 8.7 | 18.2 | 0.00 | 0.00 | 0.00 | 93 | 1012.3 |
| 20260506104037 | 54 | 174 | 7.8 | 18.2 | 0.00 | 0.00 | 0.00 | 93 | 1012.2 |
| 20260506103537 | 54 | 151 | 8.7 | 19.1 | 0.00 | 0.00 | 0.00 | 93 | 1012.3 |
| 20260506103049 | 54 | 221 | 8.7 | 19.1 | 0.00 | 0.00 | 0.00 | 93 | 1012.3 |
| 20260506102537 | 54 | 200 | 8.7 | 16.5 | 0.00 | 0.00 | 0.00 | 93 | 1012.3 |
| 20260506102039 | 54 | 152 | 7.8 | 18.2 | 0.00 | 0.00 | 0.00 | 94 | 1012.3 |
| 20260506101541 | 54 | 172 | 8.7 | 18.2 | 0.00 | 0.00 | 0.00 | 94 | 1012.2 |
| 20260506101037 | 53 | 185 | 7.0 | 19.1 | 0.00 | 0.00 | 0.00 | 93 | 1012.1 |
| 20260506100537 | 53 | 135 | 8.7 | 20.0 | 0.00 | 0.00 | 0.00 | 93 | 1012.2 |
| 20260506100048 | 53 | 148 | 8.7 | 20.0 | 0.00 | 0.00 | 0.00 | 94 | 1012.2 |
| 20260506095538 | 53 | 196 | 7.8 | 17.4 | 0.00 | 0.00 | 0.00 | 93 | 1012.1 |
| 20260506095042 | 53 | 203 | 8.7 | 23.5 | 0.00 | 0.00 | 0.00 | 93 | 1012.0 |
| 20260506094547 | 53 | 210 | 8.7 | 23.5 | 0.00 | 0.00 | 0.00 | 93 | 1012.0 |
| 20260506094039 | 53 | 196 | 10.4 | 20.9 | 0.00 | 0.00 | 0.00 | 93 | 1011.9 |
| 20260506093537 | 53 | 144 | 8.7 | 20.0 | 0.00 | 0.00 | 0.00 | 94 | 1012.1 |
| 20260506093052 | 53 | 153 | 7.8 | 18.2 | 0.00 | 0.00 | 0.00 | 93 | 1012.1 |
| 20260506092536 | 53 | 188 | 7.8 | 17.4 | 0.00 | 0.00 | 0.00 | 94 | 1012.2 |
| 20260506092039 | 53 | 194 | 8.7 | 17.4 | 0.00 | 0.00 | 0.00 | 94 | 1012.3 |
| 20260506091543 | 53 | 192 | 7.8 | 17.4 | 0.00 | 0.00 | 0.00 | 94 | 1012.4 |
| 20260506091036 | 53 | 188 | 7.8 | 17.4 | 0.00 | 0.00 | 0.00 | 94 | 1012.4 |
| 20260506090536 | 53 | 186 | 6.1 | 15.6 | 0.00 | 0.00 | 0.00 | 94 | 1012.4 |
| 20260506090042 | 54 | 283 | 7.8 | 15.6 | 0.00 | 0.00 | 0.00 | 94 | 1012.4 |
| 20260506085535 | 54 | 175 | 6.1 | 17.4 | 0.00 | 0.00 | 0.00 | 94 | 1012.5 |
| 20260506085037 | 53 | 215 | 7.8 | 17.4 | 0.00 | 0.00 | 0.00 | 94 | 1012.4 |
| 20260506084548 | 54 | 173 | 7.0 | 16.5 | 0.00 | 0.00 | 0.00 | 94 | 1012.5 |
| 20260506084037 | 53 | 198 | 8.7 | 16.5 | 0.00 | 0.00 | 0.00 | 94 | 1012.5 |
| 20260506083537 | 53 | 173 | 7.0 | 15.6 | 0.00 | 0.00 | 0.00 | 94 | 1012.6 |
| 20260506083107 | 53 | 209 | 7.0 | 14.8 | 0.00 | 0.00 | 0.00 | 94 | 1012.5 |
| 20260506082537 | 53 | 175 | 8.7 | 20.0 | 0.00 | 0.00 | 0.00 | 94 | 1012.6 |
| 20260506082036 | 53 | 198 | 6.1 | 21.7 | 0.00 | 0.00 | 0.00 | 94 | 1012.5 |
| 20260506081547 | 53 | 172 | 8.7 | 21.7 | 0.00 | 0.00 | 0.00 | 94 | 1012.6 |
| 20260506081036 | 53 | 198 | 7.8 | 15.6 | 0.00 | 0.00 | 0.00 | 94 | 1012.7 |
| 20260506080538 | 53 | 167 | 8.7 | 20.0 | 0.00 | 0.00 | 0.00 | 94 | 1012.8 |
| 20260506073044 | 53 | 197 | 8.7 | 17.4 | 0.00 | 0.00 | 0.00 | 93 | 1012.6 |
| 20260506072537 | 53 | 157 | 8.7 | 18.2 | 0.00 | 0.00 | 0.00 | 93 | 1012.7 |
| 20260506072037 | 54 | 205 | 7.8 | 18.2 | 0.00 | 0.00 | 0.00 | 93 | 1012.6 |
| 20260506071548 | 54 | 194 | 9.6 | 18.2 | 0.00 | 0.00 | 0.00 | 93 | 1012.7 |
| 20260506071038 | 54 | 192 | 7.8 | 17.4 | 0.00 | 0.00 | 0.00 | 93 | 1012.7 |
| 20260506070537 | 54 | 210 | 8.7 | 15.6 | 0.00 | 0.00 | 0.00 | 93 | 1012.7 |
| 20260506062037 | 54 | 182 | 9.6 | 16.5 | 0.00 | 0.00 | 0.00 | 92 | 1012.5 |
| 20260506061543 | 54 | 178 | 7.0 | 20.0 | 0.00 | 0.00 | 0.00 | 92 | 1012.5 |
| 20260506061037 | 54 | 165 | 7.8 | 20.0 | 0.00 | 0.00 | 0.00 | 92 | 1012.4 |
| 20260506060535 | 54 | 221 | 7.8 | 20.0 | 0.00 | 0.00 | 0.00 | 92 | 1012.5 |
| 20260506051036 | 54 | 221 | 7.8 | 17.4 | 0.00 | 0.00 | 0.00 | 92 | 1012.7 |
| 20260506050536 | 54 | 248 | 7.0 | 17.4 | 0.00 | 0.00 | 0.00 | 92 | 1012.9 |
| 20260506045036 | 53 | 167 | 7.0 | 18.2 | 0.00 | 0.00 | 0.00 | 92 | 1013.0 |
| 20260506044550 | 53 | 201 | 8.7 | 18.2 | 0.00 | 0.00 | 0.00 | 92 | 1012.9 |
| 20260506044036 | 53 | 225 | 7.0 | 16.5 | 0.00 | 0.00 | 0.00 | 92 | 1012.9 |
| 20260506043540 | 53 | 198 | 7.0 | 17.4 | 0.00 | 0.00 | 0.00 | 92 | 1013.0 |
| 20260506043049 | 53 | 175 | 7.8 | 20.9 | 0.00 | 0.00 | 0.00 | 92 | 1013.1 |
| 20260506042537 | 53 | 173 | 7.0 | 20.9 | 0.00 | 0.00 | 0.00 | 92 | 1013.2 |
| 20260506042037 | 53 | 201 | 7.0 | 16.5 | 0.00 | 0.00 | 0.00 | 92 | 1013.1 |
| 20260506041546 | 53 | 221 | 5.2 | 15.6 | 0.00 | 0.00 | 0.00 | 92 | 1013.1 |
| 20260506041036 | 53 | 167 | 7.8 | 18.2 | 0.00 | 0.00 | 0.00 | 92 | 1013.1 |
| 20260506040534 | 53 | 179 | 7.0 | 18.2 | 0.00 | 0.00 | 0.00 | 92 | 1013.1 |
| 20260506040050 | 53 | 186 | 7.8 | 17.4 | 0.00 | 0.00 | 0.00 | 92 | 1013.0 |
| 20260506035537 | 53 | 231 | 7.0 | 17.4 | 0.00 | 0.00 | 0.00 | 92 | 1013.1 |
| 20260506035037 | 53 | 160 | 7.0 | 15.6 | 0.00 | 0.00 | 0.00 | 91 | 1013.1 |
| 20260506034545 | 53 | 196 | 7.0 | 15.6 | 0.00 | 0.00 | 0.00 | 91 | 1013.1 |
| 20260506034036 | 53 | 128 | 7.8 | 14.8 | 0.00 | 0.00 | 0.00 | 91 | 1013.1 |
| 20260506033536 | 53 | 201 | 7.8 | 25.2 | 0.00 | 0.00 | 0.00 | 91 | 1013.1 |
| 20260506033043 | 53 | 173 | 6.1 | 25.2 | 0.00 | 0.00 | 0.00 | 91 | 1013.0 |
| 20260506032537 | 53 | 161 | 8.7 | 18.2 | 0.00 | 0.00 | 0.00 | 91 | 1013.0 |
| 20260506032037 | 53 | 198 | 7.0 | 16.5 | 0.00 | 0.00 | 0.00 | 90 | 1012.9 |
| 20260506031549 | 53 | 214 | 7.0 | 16.5 | 0.00 | 0.00 | 0.00 | 91 | 1012.9 |
| 20260506031038 | 54 | 209 | 7.0 | 19.1 | 0.00 | 0.00 | 0.00 | 90 | 1012.8 |
| 20260506030538 | 54 | 188 | 7.8 | 18.2 | 0.00 | 0.00 | 0.00 | 90 | 1012.9 |
| 20260506030052 | 54 | 215 | 5.2 | 19.1 | 0.00 | 0.00 | 0.00 | 90 | 1012.9 |
| 20260506025537 | 54 | 211 | 7.0 | 19.1 | 0.00 | 0.00 | 0.00 | 90 | 1012.8 |
| 20260506025036 | 53 | 166 | 5.2 | 14.8 | 0.00 | 0.00 | 0.00 | 90 | 1012.9 |
| 20260506024559 | 53 | 191 | 7.0 | 18.2 | 0.00 | 0.00 | 0.00 | 90 | 1012.9 |
| 20260506024037 | 54 | 219 | 7.0 | 18.2 | 0.00 | 0.00 | 0.00 | 89 | 1012.9 |
| 20260506023538 | 54 | 146 | 7.8 | 15.6 | 0.00 | 0.00 | 0.00 | 89 | 1012.9 |
| 20260506023045 | 54 | 189 | 6.1 | 14.8 | 0.00 | 0.00 | 0.00 | 89 | 1012.9 |
| 20260506022537 | 54 | 199 | 7.8 | 19.1 | 0.00 | 0.00 | 0.00 | 89 | 1012.8 |
| 20260506022037 | 54 | 174 | 9.6 | 19.1 | 0.00 | 0.00 | 0.00 | 89 | 1012.8 |
| 20260506021544 | 54 | 231 | 7.8 | 16.5 | 0.00 | 0.00 | 0.00 | 89 | 1012.9 |
| 20260506021037 | 54 | 150 | 7.8 | 16.5 | 0.00 | 0.00 | 0.00 | 89 | 1012.8 |
| 20260506020536 | 54 | 205 | 7.0 | 15.6 | 0.00 | 0.00 | 0.00 | 88 | 1012.9 |
| 20260506020105 | 54 | 195 | 7.0 | 20.9 | 0.00 | 0.00 | 0.00 | 88 | 1012.8 |
| 20260506015540 | 54 | 275 | 7.8 | 20.9 | 0.00 | 0.00 | 0.00 | 88 | 1012.9 |
| 20260506015037 | 54 | 198 | 8.7 | 24.3 | 0.00 | 0.00 | 0.00 | 87 | 1012.8 |
| 20260506014552 | 54 | 169 | 7.0 | 24.3 | 0.00 | 0.00 | 0.00 | 87 | 1012.8 |
| 20260506014036 | 54 | 188 | 8.7 | 20.0 | 0.00 | 0.00 | 0.00 | 87 | 1012.6 |
| 20260506013535 | 54 | 224 | 9.6 | 20.0 | 0.00 | 0.00 | 0.00 | 87 | 1012.7 |
| 20260506013042 | 54 | 219 | 7.8 | 15.6 | 0.00 | 0.00 | 0.00 | 86 | 1012.6 |
| 20260506012537 | 54 | 235 | 7.8 | 20.9 | 0.00 | 0.00 | 0.00 | 86 | 1012.6 |
| 20260506012038 | 54 | 165 | 8.7 | 20.9 | 0.00 | 0.00 | 0.00 | 86 | 1012.5 |
| 20260506011612 | 54 | 171 | 7.8 | 19.1 | 0.00 | 0.00 | 0.00 | 85 | 1012.5 |
| 20260506011036 | 54 | 198 | 7.8 | 19.1 | 0.00 | 0.00 | 0.00 | 85 | 1012.4 |
| 20260506010537 | 54 | 195 | 7.8 | 19.1 | 0.00 | 0.00 | 0.00 | 85 | 1012.3 |
| 20260506010047 | 54 | 209 | 9.6 | 19.1 | 0.00 | 0.00 | 0.00 | 84 | 1012.1 |
| 20260506005537 | 54 | 180 | 7.0 | 19.1 | 0.00 | 0.00 | 0.00 | 84 | 1012.1 |
| 20260506005037 | 54 | 213 | 8.7 | 18.2 | 0.00 | 0.00 | 0.00 | 84 | 1012.1 |
| 20260506004558 | 54 | 159 | 8.7 | 18.2 | 0.00 | 0.00 | 0.00 | 83 | 1011.9 |
| 20260506004037 | 54 | 198 | 7.8 | 21.7 | 0.00 | 0.00 | 0.00 | 83 | 1011.9 |
| 20260506003536 | 54 | 186 | 8.7 | 21.7 | 0.00 | 0.00 | 0.00 | 83 | 1011.9 |
| 20260506003049 | 54 | 195 | 8.7 | 17.4 | 0.00 | 0.00 | 0.00 | 83 | 1011.6 |
| 20260506002535 | 54 | 264 | 7.8 | 18.2 | 0.00 | 0.00 | 0.00 | 83 | 1011.7 |
| 20260506002037 | 54 | 206 | 8.7 | 18.2 | 0.00 | 0.00 | 0.00 | 83 | 1011.6 |
| 20260506001549 | 54 | 143 | 7.0 | 17.4 | 0.00 | 0.00 | 0.00 | 84 | 1011.5 |
| 20260506001039 | 54 | 165 | 7.8 | 17.4 | 0.00 | 0.00 | 0.00 | 84 | 1011.5 |